Weather reports worldwide

Advertisment
Orense, Spain (8048): temperature & dewpoint: 09.12.2019 19:00:00 - 15.12.2019 19:00:00 (CET)Orense, Spain (8048): wind speed: 09.12.2019 19:00:00 - 15.12.2019 19:00:00 (CET)Orense, Spain (8048): wind direction: 09.12.2019 19:00:00 - 15.12.2019 19:00:00 (CET)Orense, Spain (8048): reduced air pressure: 09.12.2019 19:00:00 - 15.12.2019 19:00:00 (CET)Orense, Spain (8048): visibility: 09.12.2019 19:00:00 - 15.12.2019 19:00:00 (CET)Orense, Spain (8048): precipitation: 09.12.2019 19:00:00 - 15.12.2019 19:00:00 (CET)
Date & Time tt [°C] td [°C] ff [km/h] ff [kn] dd ppp [hPa] vv [km] rr [mm]
15.12.2019 19:00:00 9,5 8,4 4 2 ENE 1006,8 7 -
15.12.2019 18:00:00 9,8 9,0 2 1 NNE 1007,0 4,5 2,0
15.12.2019 17:00:00 10,2 9,1 4 2 S 1007,5 18 2,0
15.12.2019 16:00:00 11,0 9,3 2 1 SSE 1007,7 16 -
15.12.2019 15:00:00 11,4 10,3 2 1 N 1007,9 7 0,2
15.12.2019 14:00:00 11,2 10,3 2 1 WNW 1008,4 20 0,6
15.12.2019 13:00:00 11,1 10,2 4 2 WSW 1009,3 6 -
15.12.2019 12:00:00 10,9 9,8 4 2 E 1009,7 12 0,2
15.12.2019 11:00:00 11,0 10,1 5 3 SE 1010,1 15 0,4
15.12.2019 10:00:00 11,5 10,1 4 2 S 1009,7 4,5 -
15.12.2019 09:00:00 11,7 11,1 5 3 SE 1008,5 18 3,0
15.12.2019 08:00:00 11,6 11,1 2 1 SE 1008,1 3,1 3,0
15.12.2019 07:00:00 12,0 10,9 4 2 WNW 1008,1 7 -
15.12.2019 06:00:00 12,2 10,8 2 1 S 1008,9 - 2,0
15.12.2019 05:00:00 12,1 9,5 5 3 S 1009,1 20 0,0
15.12.2019 04:00:00 11,1 10,0 2 1 W 1010,1 20 -
15.12.2019 03:00:00 11,2 9,9 4 2 W 1010,3 20 0,0
15.12.2019 02:00:00 11,8 10,2 4 2 WSW 1011,1 20 0,0
15.12.2019 01:00:00 12,1 10,0 4 2 WSW 1011,7 20 -
15.12.2019 00:00:00 12,8 10,0 4 2 S 1012,3 20 0,0
14.12.2019 23:00:00 13,6 9,4 5 3 S 1012,6 20 0,0
14.12.2019 22:00:00 13,8 8,8 5 3 SE 1013,0 20 -
14.12.2019 21:00:00 12,9 9,9 2 1 ESE 1013,3 20 0,0
14.12.2019 20:00:00 13,1 10,1 9 5 SE 1013,9 20 0,0
14.12.2019 19:00:00 13,5 9,7 5 3 SSE 1014,1 20 -
14.12.2019 18:00:00 13,7 9,9 5 3 SW 1014,4 20 0,0
14.12.2019 17:00:00 14,3 9,9 2 1 WSW 1014,4 20 0,0
14.12.2019 16:00:00 14,4 9,6 15 8 WSW 1014,6 20 -
14.12.2019 15:00:00 15,8 9,9 15 8 SW 1014,8 20 0,0
14.12.2019 14:00:00 15,1 10,1 13 7 SSW 1015,5 20 0,0
14.12.2019 13:00:00 14,5 10,9 9 5 SSW 1016,2 20 -
14.12.2019 12:00:00 13,3 10,1 8 4 SE 1017,1 20 0,0
14.12.2019 11:00:00 12,6 10,1 4 2 SSE 1017,1 20 0,0
14.12.2019 10:00:00 11,8 10,5 5 3 S 1017,4 19 -
14.12.2019 09:00:00 11,5 10,6 8 4 SE 1017,1 19 0,2
14.12.2019 08:00:00 11,5 10,2 8 4 SE 1017,3 20 0,0
14.12.2019 07:00:00 11,5 9,9 5 3 SE 1017,4 20 -
14.12.2019 06:00:00 11,7 9,8 8 4 SSE 1017,5 20 0,0
14.12.2019 05:00:00 11,8 10,0 5 3 SE 1017,9 17 0,0
14.12.2019 04:00:00 12,4 10,1 8 4 SSE 1018,0 19 -
14.12.2019 03:00:00 12,5 10,2 8 4 S 1018,0 19 0,0
14.12.2019 02:00:00 12,6 10,1 8 4 SSE 1018,2 20 0,0
14.12.2019 01:00:00 12,5 10,2 4 2 S 1018,6 20 -
14.12.2019 00:00:00 12,6 10,3 5 3 SE 1018,8 20 0,0
13.12.2019 23:00:00 12,7 10,1 9 5 S 1018,7 20 0,0
13.12.2019 22:00:00 12,6 10,1 8 4 SSE 1019,0 20 -
13.12.2019 21:00:00 12,7 10,1 8 4 SSW 1019,4 17 0,0
13.12.2019 20:00:00 13,3 9,5 15 8 S 1018,9 20 0,0
13.12.2019 19:00:00 13,4 10,0 11 6 S 1018,8 20 -
13.12.2019 18:00:00 13,6 11,5 9 5 SE 1018,7 20 0,2
13.12.2019 17:00:00 14,5 12,2 4 2 SW 1018,2 20 0,0
13.12.2019 16:00:00 14,7 12,2 5 3 SSW 1017,9 20 -
13.12.2019 15:00:00 14,8 12,3 5 3 S 1017,9 20 0,0
13.12.2019 14:00:00 14,7 12,0 8 4 SSW 1018,1 20 0,0
13.12.2019 13:00:00 14,7 12,2 9 5 SSW 1018,4 18 -
13.12.2019 12:00:00 15,0 12,3 8 4 SW 1018,9 16 0,0
13.12.2019 11:00:00 14,5 12,0 4 2 SE 1018,5 20 0,0
13.12.2019 10:00:00 14,0 12,0 2 1 SSE 1018,1 20 -
13.12.2019 09:00:00 13,9 11,8 2 1 SSW 1017,9 20 0,0
13.12.2019 08:00:00 13,8 11,5 4 2 WSW 1017,1 20 0,0
13.12.2019 07:00:00 13,5 11,7 4 2 S 1016,9 12 -
13.12.2019 06:00:00 13,5 11,4 8 4 SSW 1016,5 20 0,0
13.12.2019 05:00:00 13,5 11,2 5 3 SW 1016,4 20 0,0
13.12.2019 04:00:00 13,7 11,6 8 4 SSW 1016,3 20 -
13.12.2019 03:00:00 14,0 11,5 4 2 SW 1015,6 20 0,0
13.12.2019 02:00:00 14,4 12,1 9 5 W 1016,0 13 0,0
13.12.2019 01:00:00 14,4 12,1 9 5 SSW 1015,9 20 -
13.12.2019 00:00:00 14,3 12,2 5 3 S 1015,8 20 0,0
12.12.2019 23:00:00 14,2 12,4 9 5 SSW 1015,3 20 0,0
12.12.2019 22:00:00 13,7 12,4 4 2 SSE 1015,0 12 -
12.12.2019 21:00:00 13,8 12,5 5 3 S 1014,7 19 0,2
12.12.2019 20:00:00 13,6 12,5 8 4 SSE 1014,6 20 0,2
12.12.2019 19:00:00 13,4 12,5 5 3 SSE 1014,5 7 -
12.12.2019 18:00:00 13,3 12,2 5 3 SE 1014,1 17 1,0
12.12.2019 17:00:00 13,3 12,2 5 3 S 1014,0 6 0,8
12.12.2019 16:00:00 13,0 11,9 8 4 S 1013,7 6 -
12.12.2019 15:00:00 12,7 11,3 9 5 SSW 1014,3 6 2,0
12.12.2019 14:00:00 12,1 10,8 8 4 SW 1015,4 5 1,0
12.12.2019 13:00:00 11,7 10,4 8 4 SSW 1016,6 6 -
12.12.2019 12:00:00 11,1 9,7 9 5 SSW 1018,3 4,0 2,0
12.12.2019 11:00:00 10,5 9,1 5 3 S 1018,8 8 0,6
12.12.2019 10:00:00 10,3 9,2 5 3 S 1019,2 14 -
12.12.2019 09:00:00 10,0 8,9 5 3 S 1019,8 4,7 2,0
12.12.2019 08:00:00 10,0 8,4 4 2 S 1020,0 19 1,0
12.12.2019 07:00:00 9,9 8,8 2 1 SE 1020,7 18 -
12.12.2019 06:00:00 9,7 8,3 8 4 SE 1021,4 6 0,6
12.12.2019 05:00:00 9,7 8,3 5 3 SSE 1022,0 17 0,2
12.12.2019 04:00:00 9,7 8,3 5 3 SSW 1023,3 20 -
12.12.2019 03:00:00 8,9 8,3 4 2 SE 1024,1 20 0,2
12.12.2019 02:00:00 8,1 7,7 4 2 WSW 1025,0 6 0,0
12.12.2019 01:00:00 8,1 7,5 2 1 SW 1025,5 9 -
12.12.2019 00:00:00 8,1 7,3 2 1 SE 1026,5 8 0,2
11.12.2019 23:00:00 8,4 7,3 2 1 SSE 1026,9 10 0,0
11.12.2019 22:00:00 9,0 7,1 2 1 ESE 1026,9 20 -
11.12.2019 21:00:00 8,7 7,3 4 2 ESE 1027,3 18 0,0
11.12.2019 20:00:00 9,1 7,5 4 2 SSE 1027,7 19 0,0
11.12.2019 19:00:00 9,5 7,4 2 1 ESE 1027,8 17 -
11.12.2019 18:00:00 10,0 7,6 4 2 SE 1027,7 19 0,2
11.12.2019 17:00:00 10,8 7,5 2 1 SSE 1027,8 13 0,2
11.12.2019 16:00:00 11,6 7,1 9 5 S 1027,4 20 -
11.12.2019 15:00:00 11,6 6,1 9 5 SW 1027,7 15 0,0
11.12.2019 14:00:00 11,6 5,0 5 3 WSW 1028,1 20 0,0
11.12.2019 13:00:00 11,7 4,9 5 3 SW 1028,7 20 -
11.12.2019 12:00:00 11,4 7,1 2 1 SE 1029,4 6 0,0
11.12.2019 11:00:00 8,5 7,4 2 1 SE 1029,3 18 0,0
11.12.2019 10:00:00 6,9 6,2 2 1 ESE 1028,8 13 -
11.12.2019 09:00:00 7,4 6,5 2 1 ESE 1027,9 19 0,0
11.12.2019 08:00:00 8,8 7,7 2 1 SSE 1026,9 20 0,0
11.12.2019 07:00:00 9,2 8,0 2 1 WSW 1025,9 20 -
11.12.2019 06:00:00 9,1 8,5 2 1 NE 1025,0 18 0,2
11.12.2019 05:00:00 9,1 8,6 4 2 ESE 1024,7 8 2,0
11.12.2019 04:00:00 8,9 8,3 5 3 NNE 1023,5 2,1 -
11.12.2019 03:00:00 8,5 7,9 2 1 SW 1022,8 2,0 4,0
11.12.2019 02:00:00 8,6 7,7 2 1 SSE 1022,9 3,1 0,6
11.12.2019 01:00:00 8,6 7,5 2 1 W 1023,4 - -
11.12.2019 00:00:00 8,5 7,4 2 1 SSE 1023,9 6 0,0
10.12.2019 23:00:00 8,4 7,2 2 1 ENE 1024,5 7 0,0
10.12.2019 22:00:00 8,1 6,9 2 1 E 1025,0 6 -
10.12.2019 21:00:00 7,9 6,7 0 0 N 1025,6 6 0,0
10.12.2019 20:00:00 7,7 6,5 2 1 SSE 1025,6 - 0,0
10.12.2019 19:00:00 7,9 6,4 4 2 E 1025,7 6 -
10.12.2019 18:00:00 8,4 6,0 2 1 SSE 1025,7 10 0,0
10.12.2019 17:00:00 9,0 6,3 4 2 SSW 1026,2 10 0,0
10.12.2019 16:00:00 7,9 5,7 2 1 S 1026,6 11 -
10.12.2019 15:00:00 7,4 5,4 2 1 SSW 1027,1 11 0,0
10.12.2019 14:00:00 6,8 5,1 4 2 S 1028,2 10 0,0
10.12.2019 13:00:00 5,9 4,7 4 2 SW 1029,3 9 -
10.12.2019 12:00:00 5,3 4,9 4 2 WSW 1030,6 9 0,0
10.12.2019 11:00:00 4,4 4,1 2 1 S 1030,9 7 0,0
10.12.2019 10:00:00 3,7 3,4 4 2 SSE 1031,4 7 -
10.12.2019 09:00:00 3,7 3,6 4 2 SE 1031,5 2,0 0,0
10.12.2019 08:00:00 3,6 3,3 5 3 S 1031,2 2,8 0,0
10.12.2019 07:00:00 3,8 3,7 4 2 SE 1031,4 1,3 -
10.12.2019 06:00:00 3,5 3,2 4 2 SE 1031,5 1,1 0,0
10.12.2019 05:00:00 3,6 3,3 5 3 SE 1031,9 1,5 0,0
10.12.2019 04:00:00 3,8 3,5 4 2 S 1032,4 1,7 -
10.12.2019 03:00:00 4,0 3,6 4 2 SSE 1032,8 2,0 0,0
10.12.2019 02:00:00 4,4 4,0 4 2 SE 1033,0 - 0,0
10.12.2019 01:00:00 4,7 4,3 5 3 SSE 1033,4 3,9 -
10.12.2019 00:00:00 5,2 4,8 4 2 SSW 1034,1 0,9 0,0
09.12.2019 23:00:00 5,3 4,7 4 2 SE 1033,8 4,5 0,0
09.12.2019 22:00:00 5,4 4,8 2 1 SSW 1033,9 - -
09.12.2019 21:00:00 5,4 4,5 2 1 ESE 1034,0 4,3 0,0
09.12.2019 20:00:00 6,3 5,1 2 1 SW 1033,7 3,0 0,0
09.12.2019 19:00:00 7,7 6,2 2 1 SE 1033,3 - -

tt = temperature
td = dewpoint
ff = wind speed
dd = wind direction
ppp = reduced air pressure
vv = visibility
rr = precipitation

Next stations